Regional Weather Roundup
Issued by NWS

Home | Current Version | Previous Version | Text Only | Print | Product List | Glossary Off
Versions: 1 2 3 4 5 6 7 8 9 10 11 12 13 14 15 16 17 18 19 20 21 22 23 24 25 26 27 28 29 30 31 32 33 34 35 36 37 38 39 40 41 42 43 44 45 46 47 48 49 50

000
ASUS43 KFSD 051110
RWRSD

WEATHER ROUNDUP FOR SOUTH DAKOTA
NATIONAL WEATHER SERVICE SIOUX FALLS SD
500 AM CST THU MAR 05 2015

NOTE: "FAIR" INDICATES FEW OR NO CLOUDS BELOW 12,000 FEET WITH NO
SIGNIFICANT WEATHER AND/OR OBSTRUCTIONS TO VISIBILITY.


SDZ001>005-009-010-012>017-051200-
NORTHWEST AND NORTH CENTRAL SOUTH DAKOTA

CITY           SKY/WX    TMP DP  RH WIND       PRES   REMARKS
BUFFALO          N/A      3  -5  69 S6        30.02F WCI  -8
FAITH            N/A     -1  -8  72 S17       30.17F WCI -22
MOBRIDGE       CLEAR     -1  -7  75 SE13      30.25F WCI -19
$$

SDZ012>016-024>037-041>051-057-063-072>074-051200-
SOUTHWEST AND SOUTH CENTRAL SOUTH DAKOTA

CITY           SKY/WX    TMP DP  RH WIND       PRES   REMARKS
RAPID CTY ARPT CLEAR      2  -3  80 CALM      30.14F
PIERRE         MOCLDY    -7 -10  87 SE8       30.31F WCI -23
CUSTER         CLEAR      9  -4  55 W3        30.01F
ELLSWORTH AFB  PTCLDY     6  -1  73 SW5       30.12F WCI  -3
PHILIP         MOCLDY    -6 -13  71 CALM      30.25F
PINE RIDGE     PTCLDY    -8 -13  78 CALM      30.18F
SPEARFISH      FAIR      19   0  42 MISG      30.07F
WINNER         FAIR       7  -4  60 SW8       30.31F WCI  -6
$$

SDZ004>011-016>023-039-040-051200-
NORTHEAST SOUTH DAKOTA

CITY           SKY/WX    TMP DP  RH WIND       PRES   REMARKS
ABERDEEN       MOCLDY   -15 -21  74 S7        30.39F WCI -31
WATERTOWN      MOCLDY   -16 -22  74 S6        30.36R WCI -31
SISSETON         N/A     -9 -16  71 SW6       30.39  WCI -22
$$

SDZ017-020-022-023-036>040-048>070-051200-
SOUTHEAST SOUTH DAKOTA

CITY           SKY/WX    TMP DP  RH WIND       PRES   REMARKS
SIOUX FALLS    CLEAR     -9 -14  78 CALM      30.43R
HURON          MOCLDY    -6 -12  75 S7        30.41F WCI -20
CHAMBERLAIN    MOCLDY    -8 -13  82 E3        30.36F
MITCHELL       PTCLDY    -7 -12  79 S3        30.44F
YANKTON        CLEAR     -2  -8  78 CALM      30.47S
$$

ABBREVIATIONS USED IN REMARKS
   TC - TEMPERATURE IN CELSIUS
  WCI - WIND CHILL INDEX
   HX - HEAT INDEX
  VSB - VISIBILITY



USA.gov is the U.S. government's official web portal to all federal, state and local government web resources and services.